www.pogodaiklimat.ru

Погода и климат >> Архив погоды >> Иран >> Феса


ПОГОДА в Фесе

  • Прогноз погоды в Фесе
  • Монитор погоды в Фесе

АРХИВ ПОГОДЫ в Фесе

Время (UTC), дата Ветер
(напр.,м/с)
 
Видим.   Явления Облачность Т
(С)
Тd
(С)
f
(%)
Тe
(С)
Тes
(С)
Комфортность P
(гПа)
Po
(гПа)
Тmin
(С)
Tmax
(С)
R
(мм)
R24
(мм)
S
(см)
15 17.04 З 2 10 км ясно +20.4 +7.7 44 +22 +22 комфорт 1007.4 869.5 +26.4
18 17.04 СЗ 3 10 км ясно +16.8 +7.0 52 +17 +17 1007.3 870.8
21 17.04 штиль 0 10 км ясно +13.4 +7.7 68 +13 +13 1006.8 870.8
00 18.04 штиль 0 10 км ясно +10.6 +8.3 86 +10 +10 1006.9 870.4
03 18.04 штиль 0 8000 м дымка 3/0
[Ac trans Ci fib]
+9.8 +8.3 90 +9 +10 1010.1 871.7 +9.8
06 18.04 ЮВ 2 6000 м мгла 6/0
[Cs]
+20.2 +10.1 52 +22 +34 комфорт 1009.5 872.8
09 18.04 Ю 5 5000 м мгла 6/0
[Ac trans Cs]
+25.4 +6.2 29 +25 +33 комфорт 1008.1 871.8
12 18.04 Ю 4 7000 м мгла 6/4 1200 м
[Sc diur, vesp Ac As]
+24.0 +8.1 36 +24 +27 комфорт 1007.7 870.6
15 18.04 ЮЗ 3 10 км 4/1 1200 м
[Sc diur, vesp Ac trans]
+20.4 +8.2 45 +22 +22 комфорт 1008.7 870.6 +26.4 666
18 18.04 штиль 0 10 км 1/1 1200 м
[Sc diur, vesp]
+17.8 +6.5 47 +18 +18 1008.0 871.6
21 18.04 штиль 0 10 км 3/3 1200 м
[Sc diur, vesp]
+13.4 +9.4 77 +13 +13 1007.3 871.2
00 19.04 штиль 0 10 км 4/4 1200 м
[Sc diur, vesp]
+12.2 +9.6 84 +12 +12 1007.8 871.1
03 19.04 СЗ 2 10 км 1/1 1200 м
[Sc diur, vesp]
+10.8 +8.9 88 +9 +11 1008.7 870.7 +10.0 666
06 19.04 ЮВ 2 10 км ясно +21.8 +6.8 38 +23 +37 комфорт 1007.5 871.5
09 19.04 Ю 4 10 км 1/1 1200 м
[Cu hum]
+26.0 +3.7 24 +25 +37 комфорт 1006.4 870.4 666
12 19.04 ЮЗ 8 10 км 3/3 1200 м
[Cu med, cong]
+26.2 +4.1 24 +25 +26 комфорт 1004.9 868.9
15 19.04 ЮЗ 5 10 км 8/3 1200 м
[Sc diur, vesp Cs]
+23.4 +0.7 22 +22 +22 комфорт 1006.6 869.4 +26.6
18 19.04 штиль 0 10 км 8/4 1200 м
[Sc diur, vesp Ac As Cs]
+21.4 +1.6 27 +21 +21 комфорт 1005.5 870.4
21 19.04 С 2 10 км 3/0
[Ac trans]
+16.0 +7.8 58 +16 +16 1004.2 869.2
00 20.04 штиль 0 10 км 3/0
[Ac trans]
+11.6 +7.8 77 +11 +11 1004.5 868.5
03 20.04 С 2 10 км 6/0
[Cs]
+11.0 +7.5 79 +10 +11 1005.8 868.9 +10.0 666
06 20.04 штиль 0 8000 м мгла 1/0
[Ci fib]
+21.8 +9.2 45 +23 +42 комфорт 1003.7 869.1
09 20.04 Ю 8 7000 м пыльный позёмок 1/0
[Ci fib]
+25.8 +4.0 24 +25 +28 комфорт 1003.4 868.4
12 20.04 З 6 10 км 5/1 1200 м
[Cu hum Ci fib]
+26.4 +0.6 19 +25 +27 комфорт 1002.5 866.7
15 20.04 штиль 0 10 км 4/3 1200 м
[Cu hum Ci fib]
+21.8 +3.6 30 +22 +22 комфорт 1003.7 866.7 +27.0
18 20.04 штиль 0 10 км 3/0 1000 м
[Ci fib]
+16.6 +5.8 49 +17 +17 1003.6 867.8
21 20.04 СЗ 2 10 км 3/0
[Ci fib]
+12.4 +6.1 65 +12 +12 1003.3 867.5
00 21.04 С 2 10 км 3/0
[Ci fib]
+10.2 +5.3 72 +9 +9 1003.0 866.9
03 21.04 С 2 10 км 1/0
[Ci fib]
+9.8 +6.2 78 +8 +10 1004.9 867.4 +8.4
06 21.04 штиль 0 10 км ясно +21.6 +6.5 38 +22 +41 комфорт 1004.9 869.0
09 21.04 З 4 10 км 1/1 1200 м
[Cu hum]
+26.4 +3.9 23 +25 +37 комфорт 1003.4 867.7
12 21.04 ЮЗ 6 10 км 3/3 1200 м
[Cu hum]
+26.4 +4.6 25 +26 +28 жарко 1001.8 865.9
15 21.04 З 5 10 км 8/6 1050 м
[Cb calv Ac trans]
+21.8 +7.8 41 +23 +23 комфорт 1004.3 867.0 +27.2
18 21.04 Ю 5 10 км 8/5 1050 м
[Cb calv Ac cuf]
+20.8 +6.3 39 +22 +22 комфорт 1002.3 867.5
21 21.04 ЮЗ 6 8000 м мгла 10/6 1050 м
[Cb calv As op]
+17.8 +12.4 71 +17 +17 1002.3 868.2
00 22.04 штиль 0 8000 м дымка {ливн. осадки} 9/8 1050 м
[Cb calv Ac As]
+16.4 +13.1 81 +16 +16 1001.7 867.4 0.3
03 22.04 штиль 0 10 км 8/3 1200 м
[Sc Ac As]
+15.0 +13.3 90 +15 +15 1004.1 868.2 +14.8 666
06 22.04 ЮВ 3 10 км 5/4 1200 м
[Sc diur, vesp Ac trans]
+20.2 +12.5 61 +22 +29 комфорт 1003.8 868.8
09 22.04 ЮВ 4 7000 м пыль {гроза, ливн. осадки} 8/6 450 м
[Cb calv Ac As]
+21.0 +15.3 70 +24 +28 комфорт 1003.5 868.2 666
12 22.04 З 4 3000 м гроза, ливневой дождь 10/9 750 м
[Cb cap As op]
+17.6 +15.0 85 +17 +17 1003.4 867.1 6
15 22.04 штиль 0 8000 м мгла {гроза} 6/5 450 м
[Frnb Ac cuf]
+19.0 +14.1 73 +20 +20 1004.4 867.9 +23.8
18 22.04 З 2 6000 м гроза без осадков {ливн. осадки} 10/6 900 м
[Cb calv As op]
+16.4 +14.8 90 +16 +16 1005.3 869.3 1
21 22.04 ЮВ 2 8000 м в посл. час ливневой дождь {гроза} 4/4 1200 м
[Sc diur, vesp]
+15.4 +14.4 94 +15 +15 1003.6 867.8
00 23.04 С 2 8000 м дымка {гроза, ливн. осадки} 1/1 1200 м
[Sc diur, vesp]
+12.6 +12.3 98 +12 +12 1004.6 867.1 0.4
03 23.04 С 2 10 км 3/3 1200 м
[Sc diur, vesp]
+13.4 +12.7 96 +13 +14 1004.8 867.8 +11.4
06 23.04 Ю 4 10 км 3/3 1050 м
[Cu hum]
+20.2 +12.9 63 +22 +29 комфорт 1004.8 868.8
09 23.04 Ю 5 10 км ясно +23.2 +7.4 36 +24 +35 комфорт 1004.2 868.4
12 23.04 ЮЗ 5 10 км ясно +23.8 +2.8 25 +23 +28 комфорт 1003.4 867.1
15 23.04 ЮЗ 4 10 км ясно +19.2 -1.2 25 +19 +19 1004.5 867.1 +24.2 666
18 23.04 В 2 10 км ясно +14.2 +1.3 41 +14 +14 1005.5 868.4
21 23.04 СЗ 5 10 км ясно +9.6 -0.1 51 +7 +7 1006.3 868.7
00 24.04 С 3 10 км ясно +6.8 -2.2 53 +4 +4 1006.8 868.6
03 24.04 С 2 12 км ясно +6.2 +1.6 72 +4 +5 1009.3 869.7 +4.0
06 24.04 СЗ 5 12 км ясно +17.0 -2.6 26 +16 +24 1009.5 871.1
09 24.04 Ю 2 10 км ясно +19.8 -2.3 22 +20 +41 опасность
простуды
1008.8 870.2

 

Местоположение метеостанции Феса (Иран): широта 28.97 долгота 53.68 высота над уровнем моря 1288 м.

В архиве по умолчанию представлена погода в Фесе за последнюю неделю. Архивные данные за месяц целиком и за предыдущие месяцы, начиная с января 2011 года, Вы можете получить, выбрав интересующий диапазон дат из раскрывающегося списка и нажав кнопку "Ввод!".


*Определитесь, кто Вы:
робот инопланетянин человек

Внимание! Время в таблицах - всемирное. Для получения местного времени необходимо прибавить поправку, которая равна 3.5 ч.

Смотрите также архив погоды в соседних городах и на ближайших метеорологических станциях:

Погода в Ширазе (Иран) (128 км)
Погода в Сирджане (Иран) (206 км)
Погода в Бендер-Дейере (Иран) (213 км)
Погода в Абаде (Иран) (264 км)
Погода в Бушире (Иран) (275 км)
Погода на Острове Киш (Иран) (276 км)
Погода в Ясудже (Иран) (277 км)
Погода в Бушир аэропорту (Иран) (277 км)
Погода в Бафте (Иран) (282 км)
Погода в Бендер-Ленге (Иран) (289 км)

Пояснения к столбцам:

Ветер - указаны скорость ветра в м/с - средняя за 10 мин, порывы в срок и между сроками (в фигурных скобках) и направление, откуда дует ветер: С - северный, СВ - северо-восточный, В - восточный, ЮВ - юго-восточный, Ю - южный, ЮЗ - юго-западный, З - западный, СЗ - северо-западный.
Видимость - горизонтальная дальность видимости в метрах или километрах. При видимости от 1 до 10 км при отсутствии осадков обычно наблюдается дымка, при ухудшении видимости до 1 км и менее - туман. В сухую погоду видимость может ухудшаться дымом, пылью или мглою.
Явления - указаны атмосферные явления, наблюдавшиеся в срок или в последний час перед сроком; фигурными скобками обозначены явления, наблюдавшиеся между сроками (за 1-3 часа до срока); квадратными скобками обозначены град или гололедные отложения с указанием их диаметра в мм.
Облачность - указаны через наклонную черту общая и нижняя облачность в баллах и высота нижней границы облаков в метрах; квадратными скобками обозначены формы облаков: Ci - перистые, Cs - перисто-слоистые, Cc - перисто-кучевые, Ac - высококучевые, As - высокослоистые, Sc - слоисто-кучевые, Ns - слоисто-дождевые, Cu - кучевые, Cb - кучево-дождевые. Подробнее классификацию облаков см. в Атласе облаков (PDF).
T - Температура воздуха - температура, измеренная на высоте 2 м над землей.
Td - Температура точки росы - температура, при понижении до которой содержащийся в воздухе водяной пар достигнет насыщения.
f - Относительная влажность воздуха - влажноcть воздуха, измеренная на высоте 2 м над землей.
Te - Эффективная температура - температура, которую ощущает одетый по сезону человек в тени. Характеристика душности погоды. При расчете учитывается влияние влажности воздуха и скорости ветра на теплоощущения человека.
Tes - Эффективная температура на солнце - температура, которую ощущает человек, с поправкой на солнечный нагрев. Характеристика знойности погоды. Зависит от высоты солнца над горизонтом, облачности и скорости ветра. Ночью, в пасмурную погоду, а также при ветре 12 м/с и более поправка равна нулю.
P - Атмосферное давление - приведенное к уровню моря атмосферное давление.
Po - Атмосферное давление - измеренное на уровне метеостанции атмосферное давление.
Tmin - Минимальная температура - минимум температуры воздуха на высоте 2 м над землей.
Tmax - Максимальная температура - максимум температуры воздуха на высоте 2 м над землей.
R - Количество осадков - Количество выпавших осадков за период времени, мм. При наведении курсора мыши на число - период времени, за который выпало указанное количество осадков.
R24 - Количество осадков - Количество выпавших осадков за 24 часа, мм.
S - Снежный покров - Высота снежного покрова, см. При наведении курсора мыши на число - состояние снежного покрова и степень покрытия местности в баллах.